    Orbital elements:
    2019 GG19                                                Earth MOID = 0.0052 AU
    Epoch 2019 Apr. 27.0 TT = JDT 2458600.5                 MPC
    M  11.04703              (2000.0)            P               Q
    n   0.24431325     Peri.  335.85888     -0.95230647     -0.30482087
    a   2.5341834      Node   186.44202     +0.29633952     -0.91289614
    e   0.6164675      Incl.    7.17934     +0.07276861     -0.27148642
    P   4.03           H   24.0           G   0.15           U   5
    Residuals in seconds of arc
    190408 F51  0.2+  0.1-    190409 H21  0.1-  0.5+    190410 K87  0.3-  0.0
    190408 F51  0.1+  0.1-    190409 H21  0.3-  0.4+    190410 K87  0.3-  0.2-
    190408 F51  0.5-  0.0     190409 H21  0.3-  0.4+    190410 K87  0.8-  0.4-
    190408 H01  0.2-  0.1-    190409 H21  0.3-  0.5+    190411 K87  0.3+  0.4-
    190408 H01  0.2-  0.1-    190409 H21  0.2-  0.1+    190411 K87  0.0   0.3-
    190408 H01  0.1-  0.2-    190409 L01  0.8-  0.2-    190411 K87  0.2-  0.3-
    190408 H01  0.2-  0.2-    190409 L01  0.2+  0.1+    190411 A17  0.3+  0.3+
    190408 033  0.1+  0.1-    190409 L01  1.0+  1.5+    190411 A17  0.2-  0.1+
    190408 033  0.2-  0.1-    190409 033  0.1-  0.0     190411 A17  0.2-  0.1+
    190408 033  0.1-  0.2-    190409 033  0.2+  0.4-    190412 711  0.2+  0.2+
    190408 033  0.3+  0.1-    190409 033  0.0   0.3-    190412 711  1.0+  0.5+
    190408 033  0.2-  0.2-    190409 033  0.0   0.1+    190412 711  0.6+  0.6+
    190408 033  0.0   0.2-    190410 033  0.5-  0.1-    190413 I52  0.0   0.0
    190408 K63  0.1+  0.1+    190410 033  0.4-  0.1-    190413 703  0.5+  0.5+
    190408 K63  0.4-  0.1+    190410 033  0.1+  0.3-    190413 I52  0.1-  0.7-
    190408 K63  0.1+  0.0     190410 033  0.1+  0.2-    190413 I52  0.2-  0.2-
    190408 K63  0.1+  0.1-    190410 033  0.0   0.1-    190413 703 (3.5-  0.6+)
    190408 K63  0.0   0.0     190410 H21  0.0   0.3+    190413 703  1.2+  0.2-
    190408 I93  0.2+  0.4+    190410 H21  0.3+  0.1+    190413 703  0.7-  0.2-
    190408 I93  0.3-  0.1-    190410 H21  0.1+  0.1+    190414 G96  0.2+  0.3-
    190408 I93  0.6+  0.1-    190410 033  0.6+  0.0     190414 G96  0.6+  0.2-
    190409 I52  0.1+  0.1+    190410 033  0.4+  0.1+    190414 G96  0.2-  0.0
    190409 I52  0.0   0.1+    190410 033  0.2+  0.1-    190414 G96  0.5+  0.1+
    190409 I52  0.1+  0.5-    190410 033  0.1+  0.2-
    190409 H21  0.0   0.2+    190410 033  0.2+  0.2-
    
    Ephemeris:
    2019 GG19                a,e,i = 2.53, 0.62, 7                   q = 0.9719
    Date    TT    R. A. (2000) Decl.     Delta      r     Elong.  Phase     V
    2019 03 15    04 45 42.8 +05 34 15   0.1540  0.9723    77.4    93.7    23.2
    ...
    2019 03 30    06 32 23.9 +19 49 03   0.07572 0.9999    88.9    86.8    21.4
    ...
    2019 04 07    09 41 32.8 +31 35 25   0.05868 1.0305   119.0    58.1    20.0
    ...
    2019 04 13    12 13 37.7 +27 37 28   0.07348 1.0597   139.9    37.6    20.0
    2019 04 14    12 30 41.6 +26 23 43   0.07777 1.0651   141.9    35.5    20.0
    2019 04 15    12 45 37.5 +25 10 32   0.08242 1.0705   143.6    33.7    20.1
    ...
    2019 04 21    13 43 50.1 +18 58 50   0.1155  1.1057   149.3    27.6    20.8
    ...
    2019 04 29    14 19 17.5 +13 38 23   0.1681  1.1581   152.1    24.0    21.6
    ...
    2019 05 14    14 45 51.5 +07 34 58   0.2837  1.2691   152.6    21.5    22.8
    
    A. U. Tomatic                (C) Copyright 2019 MPC           M.P.E.C. 2019-G164
    

    Read MPEC 2019-G163 Read MPEC 2019-G165


    MPEC number:

    Enter an MPEC number in one of the following forms:

    • 1997-B01 (the full form)
    • J97B01 (the packed version of the full form)
    • B01 (the abbreviated form)